Regional Weather Roundup
Issued by NWS

Home | Current Version | Previous Version | Graphics & Text | Print | Product List | Glossary On
Versions: 1 2 3 4 5 6 7 8 9 10 11 12 13 14 15 16 17 18 19 20 21 22 23 24 25 26 27 28 29 30 31 32 33 34 35 36 37 38 39 40 41 42 43 44 45 46 47 48 49 50
000
ASUS43 KFSD 211602
RWRSD

WEATHER ROUNDUP FOR SOUTH DAKOTA
NATIONAL WEATHER SERVICE SIOUX FALLS SD
1100 AM CDT MON AUG 21 2017

NOTE: "FAIR" INDICATES FEW OR NO CLOUDS BELOW 12,000 FEET WITH NO
SIGNIFICANT WEATHER AND/OR OBSTRUCTIONS TO VISIBILITY.


SDZ001>005-009-010-012>017-211700-
NORTHWEST AND NORTH CENTRAL SOUTH DAKOTA

CITY           SKY/WX    TMP DP  RH WIND       PRES   REMARKS
BUFFALO          N/A     74  40  29 N22G28    30.01R
FAITH            N/A     67  62  84 SE3       30.04S
MOBRIDGE       CLOUDY    65  58  78 W8        29.98F
$$

SDZ012>016-024>037-041>051-057-063-072>074-211700-
SOUTHWEST AND SOUTH CENTRAL SOUTH DAKOTA

CITY           SKY/WX    TMP DP  RH WIND       PRES   REMARKS
RAPID CTY ARPT SUNNY     74  51  44 N26G35    30.07R
PIERRE         CLOUDY    61  60  97 CALM      29.95R
CUSTER         SUNNY     70  42  36 NE9G25    30.16R
ELLSWORTH AFB  SUNNY     73  51  46 N18G30    30.07R
PHILIP         CLOUDY    65  63  93 NW5       30.02R
PINE RIDGE     PTSUNNY   76  66  71 N8        30.04R
SPEARFISH      FAIR      68  46  45 W8        30.16R
WINNER         TSTM      63  62  97 N21G33    29.98R VSB 1/2
$$

SDZ004>011-016>023-039-040-211700-
NORTHEAST SOUTH DAKOTA

CITY           SKY/WX    TMP DP  RH WIND       PRES   REMARKS
ABERDEEN       CLOUDY    63  59  87 N8        29.92S
WATERTOWN      CLOUDY    62  62 100 SE10      29.98F
BROOKINGS      CLOUDY    64  62  93 N6        30.07R
SISSETON         N/A     65  60  84 SE9       29.95S
$$

SDZ017-020-022-023-036>040-048>070-211700-
SOUTHEAST SOUTH DAKOTA

CITY           SKY/WX    TMP DP  RH WIND       PRES   REMARKS
SIOUX FALLS    CLOUDY    74  66  76 NE7       29.98R THUNDER
HURON          CLOUDY    65  65 100 SE10      29.97F THUNDER
CHAMBERLAIN    CLOUDY    66  65  97 N17G25    29.97F
MITCHELL       CLOUDY    74  66  76 NE6       29.99R
YANKTON        MOSUNNY   78  66  66 SE8       29.94R
$$

ABBREVIATIONS USED IN REMARKS
   TC - TEMPERATURE IN CELSIUS
  WCI - WIND CHILL INDEX
   HX - HEAT INDEX
  VSB - VISIBILITY




USA.gov is the U.S. government's official web portal to all federal, state and local government web resources and services.